• In United Kingdom
  • List of Countries
  • For 7 days
  • Water Temperature
  • Satellite Maps
  • Weather Map
  • Weather Widgets
  • user-avatar
    Login

    Hourly Weather Wakefield

    Today, 19 January, Friday

    Time Temperature Precipitation Wind Pressure Humidity
    00:00 0°C° 0 mm 3 mps 746 mmHg 89%
    01:00 0°C° 0 mm 3 mps 746 mmHg 88%
    02:00 -1°C° 0 mm 4 mps 746 mmHg 87%
    03:00 -1°C° 0 mm 4 mps 746 mmHg 86%
    04:00 -1°C° 0 mm 4 mps 746 mmHg 85%
    05:00 -1°C° 0 mm 4 mps 746 mmHg 84%
    06:00 -1°C° 0 mm 3 mps 746 mmHg 87%
    07:00 -1°C° 0 mm 4 mps 746 mmHg 85%
    08:00 -1°C° 0 mm 4 mps 746 mmHg 84%
    09:00 -1°C° 0 mm 4 mps 746 mmHg 82%
    10:00 0°C° 0 mm 5 mps 746 mmHg 79%
    11:00 +1°C° 0 mm 6 mps 746 mmHg 75%
    12:00 +2°C° 0 mm 6 mps 746 mmHg 72%
    13:00 +2°C° 0.1 mm 6 mps 746 mmHg 73%
    14:00 +2°C° 0.1 mm 6 mps 746 mmHg 74%
    15:00 +1°C° 0.1 mm 6 mps 746 mmHg 74%
    16:00 +1°C° 0.1 mm 5 mps 746 mmHg 76%
    17:00 0°C° 0.1 mm 5 mps 746 mmHg 77%
    18:00 0°C° 0.1 mm 5 mps 746 mmHg 79%
    19:00 0°C° 0.1 mm 4 mps 747 mmHg 79%
    20:00 0°C° 0.1 mm 4 mps 747 mmHg 80%
    21:00 0°C° 0.1 mm 4 mps 747 mmHg 81%
    22:00 -1°C° 0 mm 4 mps 747 mmHg 82%
    23:00 -1°C° 0 mm 4 mps 747 mmHg 83%

    Tomorrow, 20 January, Saturday

    Time Temperature Precipitation Wind Pressure Humidity
    00:00 -1°C° 0 mm 4 mps 747 mmHg 84%
    01:00 -1°C° 0 mm 4 mps 746 mmHg 84%
    02:00 0°C° 0 mm 3 mps 746 mmHg 85%
    03:00 0°C° 0 mm 3 mps 746 mmHg 86%
    04:00 0°C° 0 mm 3 mps 745 mmHg 86%
    05:00 +1°C° 0 mm 2 mps 745 mmHg 87%
    06:00 +1°C° 0 mm 2 mps 745 mmHg 87%
    07:00 +1°C° 0.1 mm 2 mps 745 mmHg 87%
    08:00 +1°C° 0.1 mm 2 mps 745 mmHg 87%
    09:00 +2°C° 0.1 mm 2 mps 744 mmHg 87%
    10:00 +3°C° 0.1 mm 1 mps 744 mmHg 87%
    11:00 +4°C° 0.1 mm 1 mps 744 mmHg 87%
    12:00 +4°C° 0.1 mm 1 mps 745 mmHg 86%
    13:00 +4°C° 0.2 mm 1 mps 745 mmHg 87%
    14:00 +4°C° 0.2 mm 1 mps 745 mmHg 88%
    15:00 +3°C° 0.2 mm 0 mps 745 mmHg 89%
    16:00 +3°C° 0 mm 1 mps 746 mmHg 89%
    17:00 +2°C° 0 mm 1 mps 746 mmHg 89%
    18:00 +2°C° 0 mm 1 mps 747 mmHg 89%
    19:00 +1°C° 0 mm 1 mps 748 mmHg 89%
    20:00 +1°C° 0 mm 1 mps 749 mmHg 88%
    21:00 +1°C° 0 mm 1 mps 749 mmHg 88%
    22:00 +1°C° 0 mm 1 mps 750 mmHg 87%
    23:00 0°C° 0 mm 0 mps 750 mmHg 85%

    Day after tomorrow, 21 January, Sunday

    Time Temperature Precipitation Wind Pressure Humidity
    00:00 +1°C° 0 mm 0 mps 750 mmHg 84%
    01:00 +2°C° 0.1 mm 1 mps 750 mmHg 85%
    02:00 +2°C° 0.1 mm 1 mps 750 mmHg 86%
    03:00 +2°C° 0.1 mm 1 mps 750 mmHg 87%
    04:00 +1°C° 0.9 mm 2 mps 750 mmHg 88%
    05:00 0°C° 0.9 mm 3 mps 749 mmHg 90%
    06:00 -1°C° 0.9 mm 4 mps 749 mmHg 91%
    07:00 -1°C° 1 mm 4 mps 748 mmHg 92%
    08:00 -1°C° 1 mm 5 mps 748 mmHg 92%
    09:00 -1°C° 1 mm 6 mps 748 mmHg 93%
    10:00 0°C° 1 mm 5 mps 748 mmHg 94%
    11:00 0°C° 1 mm 5 mps 747 mmHg 95%
    12:00 0°C° 1 mm 5 mps 747 mmHg 97%
    13:00 0°C° 0.4 mm 4 mps 746 mmHg 97%
    14:00 +1°C° 0.4 mm 4 mps 746 mmHg 98%
    15:00 +2°C° 0.4 mm 3 mps 746 mmHg 99%
    16:00 +3°C° 0.6 mm 3 mps 745 mmHg 99%
    17:00 +4°C° 0.6 mm 3 mps 745 mmHg 99%
    18:00 +5°C° 0.6 mm 4 mps 745 mmHg 99%
    19:00 +5°C° 0.1 mm 4 mps 745 mmHg 98%
    20:00 +6°C° 0.1 mm 5 mps 745 mmHg 98%
    21:00 +7°C° 0.1 mm 5 mps 745 mmHg 98%
    22:00 +7°C° 0 mm 5 mps 745 mmHg 97%
    23:00 +8°C° 0 mm 5 mps 745 mmHg 96%

    22 January, Monday

    Time Temperature Precipitation Wind Pressure Humidity
    00:00 +8°C° 0 mm 6 mps 745 mmHg 95%
    01:00 +8°C° 0 mm 5 mps 745 mmHg 95%
    02:00 +7°C° 0 mm 4 mps 745 mmHg 95%
    03:00 +7°C° 0 mm 4 mps 745 mmHg 95%
    04:00 +8°C° 0 mm 3 mps 746 mmHg 95%
    05:00 +7°C° 0 mm 3 mps 746 mmHg 95%
    06:00 +6°C° 0 mm 2 mps 746 mmHg 95%
    07:00 +6°C° 0 mm 2 mps 747 mmHg 94%
    08:00 +6°C° 0 mm 2 mps 748 mmHg 94%
    09:00 +4°C° 0 mm 3 mps 748 mmHg 93%
    10:00 +5°C° 0 mm 3 mps 749 mmHg 89%
    11:00 +6°C° 0 mm 4 mps 749 mmHg 85%
    12:00 +6°C° 0 mm 4 mps 750 mmHg 80%
    13:00 +6°C° 0 mm 4 mps 750 mmHg 80%
    14:00 +6°C° 0 mm 4 mps 751 mmHg 80%
    15:00 +7°C° 0 mm 3 mps 751 mmHg 80%
    16:00 +5°C° 0 mm 3 mps 752 mmHg 83%
    17:00 +4°C° 0 mm 3 mps 752 mmHg 86%
    18:00 +3°C° 0 mm 3 mps 752 mmHg 88%
    19:00 +3°C° 0 mm 3 mps 753 mmHg 89%
    20:00 +3°C° 0 mm 3 mps 753 mmHg 89%
    21:00 +3°C° 0 mm 3 mps 753 mmHg 90%
    22:00 +3°C° 0 mm 3 mps 753 mmHg 90%
    23:00 +3°C° 0 mm 4 mps 753 mmHg 90%

    23 January, Tuesday

    Time Temperature Precipitation Wind Pressure Humidity
    00:00 +3°C° 0 mm 4 mps 753 mmHg 91%
    01:00 +3°C° 0 mm 5 mps 752 mmHg 91%
    02:00 +3°C° 0 mm 5 mps 752 mmHg 90%
    03:00 +3°C° 0 mm 6 mps 751 mmHg 90%
    04:00 +4°C° 0 mm 6 mps 751 mmHg 90%
    05:00 +5°C° 0 mm 6 mps 751 mmHg 90%
    06:00 +5°C° 0 mm 6 mps 751 mmHg 90%
    07:00 +7°C° 0.1 mm 6 mps 751 mmHg 90%
    08:00 +7°C° 0.1 mm 6 mps 751 mmHg 90%
    09:00 +8°C° 0.1 mm 6 mps 752 mmHg 91%
    10:00 +8°C° 0.1 mm 6 mps 752 mmHg 89%
    11:00 +9°C° 0.1 mm 6 mps 752 mmHg 87%
    12:00 +10°C° 0.1 mm 6 mps 752 mmHg 85%
    13:00 +10°C° 0 mm 6 mps 752 mmHg 84%
    14:00 +10°C° 0 mm 5 mps 752 mmHg 82%
    15:00 +10°C° 0 mm 5 mps 752 mmHg 80%
    16:00 +9°C° 0 mm 5 mps 752 mmHg 83%
    17:00 +9°C° 0 mm 5 mps 752 mmHg 87%
    18:00 +9°C° 0 mm 6 mps 751 mmHg 91%
    19:00 +9°C° 0 mm 6 mps 751 mmHg 89%
    20:00 +10°C° 0 mm 7 mps 751 mmHg 88%
    21:00 +10°C° 0 mm 8 mps 750 mmHg 87%
    22:00 +10°C° 0 mm 8 mps 749 mmHg 85%
    23:00 +10°C° 0 mm 9 mps 749 mmHg 83%

    24 January, Wednesday

    Time Temperature Precipitation Wind Pressure Humidity
    00:00 +10°C° 0 mm 9 mps 748 mmHg 81%
    01:00 +10°C° 0.1 mm 9 mps 747 mmHg 82%
    02:00 +11°C° 0.1 mm 9 mps 747 mmHg 82%
    03:00 +11°C° 0.1 mm 9 mps 746 mmHg 82%
    04:00 +11°C° 0.1 mm 9 mps 746 mmHg 81%
    05:00 +11°C° 0.1 mm 9 mps 745 mmHg 81%
    06:00 +12°C° 0.1 mm 10 mps 745 mmHg 80%
    07:00 +12°C° 0.6 mm 10 mps 745 mmHg 81%
    08:00 +12°C° 0.6 mm 10 mps 745 mmHg 81%
    09:00 +12°C° 0.6 mm 10 mps 745 mmHg 82%
    10:00 +10°C° 1 mm 8 mps 745 mmHg 82%
    11:00 +9°C° 1 mm 7 mps 745 mmHg 82%
    12:00 +8°C° 1 mm 6 mps 746 mmHg 82%
    13:00 +8°C° 0.4 mm 6 mps 746 mmHg 81%
    14:00 +7°C° 0.4 mm 6 mps 746 mmHg 80%
    15:00 +7°C° 0.4 mm 6 mps 746 mmHg 79%
    16:00 +7°C° 0.1 mm 5 mps 746 mmHg 78%
    17:00 +6°C° 0.1 mm 5 mps 746 mmHg 78%
    18:00 +6°C° 0.1 mm 5 mps 747 mmHg 77%
    19:00 +6°C° 0 mm 5 mps 747 mmHg 77%
    20:00 +5°C° 0 mm 5 mps 747 mmHg 77%
    21:00 +5°C° 0 mm 5 mps 747 mmHg 77%
    22:00 +5°C° 0 mm 5 mps 748 mmHg 78%
    23:00 +5°C° 0 mm 5 mps 748 mmHg 79%
    Show more